Weather History for Minot AFB, ND

Change the Weather History Date:

Tuesday, May 14, 2013

  Actual Average Record
Temperature  
Mean Temperature 62 °F -  
Max Temperature 72 °F 62 °F 87 °F (2001)
Min Temperature 50 °F 39 °F 24 °F (2004)
Degree Days  
Heating Degree Days 4    
Growing Degree Days 12 (Base 50)    
Moisture  
Dew Point 52 °F    
Average Humidity 76    
Maximum Humidity 100    
Minimum Humidity 30    
Precipitation  
Precipitation 0.30 in - - ()
Sea Level Pressure  
Sea Level Pressure 29.64 in    
Wind  
Wind Speed 19 mph (WNW)    
Max Wind Speed 40 mph    
Max Gust Speed 51 mph    
Visibility 8 miles    
Events Rain , Thunderstorm    
Averages and records for this station are not official NWS values.
T = Trace of Precipitation, MM = Missing Value Source: NWS Daily Summary

Daily Weather History Graph

Daily Weather History Graph

Search for Another Location

Airport:

Trip Planner

Search our weather history database for the weather conditions in past years. The results will help you decide how hot, cold, wet, or windy it might be!

Date:

Astronomy

May. 14, 2013 Rise Set
Actual Time 6:06 AM CDT 9:18 PM CDT
Civil Twilight 5:28 AM CDT 9:55 PM CDT
Nautical Twilight 4:40 AM CDT 10:44 PM CDT
Astronomical Twilight 3:38 AM CDT 11:47 PM CDT
Moon 9:48 AM CDT (5/14) 12:27 AM CDT (5/14)
Length of Visible Light 16h 26m
Length of Day
15h 12m
Waxing Crescent, 19% of the Moon is Illuminated
May 14
Waxing Crescent
May 17
First Quarter
May 24
Full
May 31
Last Quarter
Jun 8
New

Hourly Weather History & Observations

Time (CDT) Temp. Dew Point Humidity Pressure Visibility Wind Dir Wind Speed Gust Speed Precip Events Conditions
12:55 AM 64.4 °F 56.8 °F 76% 29.60 in 10.0 mi NW 15.0 mph - 0.00 in   Light Drizzle
1:01 AM 64.4 °F 57.2 °F 77% 29.63 in 10.0 mi WNW 23.0 mph - N/A Rain , Thunderstorm Light Thunderstorms and Rain
1:20 AM 62.6 °F 57.2 °F 82% 29.54 in 10.0 mi WNW 4.6 mph - N/A   Light Drizzle
1:55 AM 60.6 °F 56.7 °F 87% 29.49 in 10.0 mi South 12.7 mph - 0.00 in   Partly Cloudy
2:51 AM 59.0 °F 59.0 °F 100% 29.54 in 10.0 mi WSW 8.1 mph - N/A Rain , Thunderstorm Light Thunderstorms and Rain
2:55 AM 59.9 °F 58.6 °F 96% 29.55 in 10.0 mi NNW 12.7 mph 17.3 mph 0.00 in   Mostly Cloudy
3:10 AM 62.6 °F 57.2 °F 82% 29.63 in 4.0 mi WNW 28.8 mph 39.1 mph N/A Rain Light Rain
3:12 AM 60.8 °F 59.0 °F 94% 29.62 in 2.5 mi WNW 31.1 mph 39.1 mph N/A Rain Heavy Rain
3:16 AM 60.8 °F 59.0 °F 94% 29.64 in 1.8 mi WNW 27.6 mph 39.1 mph N/A Rain Heavy Rain
3:18 AM 60.8 °F 59.0 °F 94% 29.64 in 1.8 mi WNW 23.0 mph 39.1 mph N/A Rain Heavy Rain
3:19 AM 60.8 °F 59.0 °F 94% 29.64 in 1.8 mi NW 19.6 mph 39.1 mph N/A Rain Heavy Rain
3:20 AM 59.0 °F 59.0 °F 100% 29.64 in 2.0 mi NW 18.4 mph 39.1 mph N/A Rain Heavy Rain
3:21 AM 59.0 °F 59.0 °F 100% 29.63 in 2.5 mi NW 19.6 mph 39.1 mph N/A Rain , Thunderstorm Heavy Thunderstorms and Rain
3:24 AM 59.0 °F 59.0 °F 100% 29.63 in 4.0 mi NW 16.1 mph - N/A Rain , Thunderstorm Thunderstorms and Rain
3:50 AM 59.0 °F 59.0 °F 100% 29.68 in 5.0 mi WNW 21.9 mph 25.3 mph N/A Rain Rain
3:52 AM 59.0 °F 59.0 °F 100% 29.67 in 4.0 mi WNW 19.6 mph - N/A Rain Heavy Rain
3:55 AM 59.7 °F 59.4 °F 99% 29.67 in 3.0 mi WNW 20.7 mph - 0.26 in Rain Heavy Rain
3:56 AM 59.0 °F 59.0 °F 100% 29.66 in 3.0 mi WNW 19.6 mph - N/A Rain Heavy Rain
4:03 AM 59.0 °F 59.0 °F 100% 29.65 in 4.0 mi NW 18.4 mph 26.5 mph N/A Rain Heavy Rain
4:05 AM 59.0 °F 59.0 °F 100% 29.64 in 5.0 mi NW 20.7 mph 26.5 mph N/A Rain Light Rain
4:55 AM 58.6 °F 58.3 °F 99% 29.57 in 10.0 mi North 4.6 mph - 0.04 in   Clear
5:55 AM 54.1 °F 54.1 °F 100% 29.53 in 10.0 mi South 4.6 mph - N/A   Clear
6:55 AM 55.4 °F 55.4 °F 100% 29.55 in 10.0 mi SW 5.8 mph - N/A   Clear
7:55 AM 59.5 °F 59.2 °F 99% 29.59 in 10.0 mi West 25.3 mph 33.4 mph N/A   Scattered Clouds
8:55 AM 61.9 °F 49.6 °F 64% 29.58 in 10.0 mi West 29.9 mph 36.8 mph N/A   Clear
9:55 AM 62.1 °F 45.9 °F 55% 29.59 in 10.0 mi West 27.6 mph 41.4 mph N/A   Clear
10:55 AM 63.9 °F 45.5 °F 51% 29.59 in 10.0 mi West 31.1 mph 35.7 mph N/A   Clear
11:55 AM 63.9 °F 45.3 °F 51% 29.60 in 10.0 mi WNW 34.5 mph 44.9 mph N/A   Mostly Cloudy
12:55 PM 63.7 °F 46.9 °F 54% 29.62 in 10.0 mi WNW 35.7 mph 49.5 mph N/A   Mostly Cloudy
1:55 PM 66.6 °F 45.3 °F 46% 29.63 in 10.0 mi NW 40.3 mph 50.6 mph N/A   Clear
2:55 PM 68.0 °F 43.0 °F 40% 29.68 in 10.0 mi NNW 28.8 mph 42.6 mph N/A   Mostly Cloudy
3:55 PM 70.3 °F 42.4 °F 36% 29.71 in 10.0 mi NW 31.1 mph 41.4 mph N/A   Scattered Clouds
4:55 PM 70.7 °F 41.2 °F 34% 29.72 in 10.0 mi NW 24.2 mph 34.5 mph N/A   Partly Cloudy
5:55 PM 72.1 °F 39.4 °F 30% 29.72 in 10.0 mi NW 24.2 mph 27.6 mph N/A   Partly Cloudy
6:55 PM 72.1 °F 38.7 °F 30% 29.72 in 10.0 mi NW 18.4 mph - N/A   Clear
7:55 PM 70.5 °F 38.3 °F 31% 29.72 in 10.0 mi NW 13.8 mph - N/A   Clear
8:55 PM 65.3 °F 38.3 °F 37% 29.74 in 10.0 mi WNW 10.4 mph - N/A   Clear
9:55 PM 55.4 °F 41.4 °F 59% 29.77 in 10.0 mi West 10.4 mph - N/A   Clear
10:55 PM 51.8 °F 42.4 °F 70% 29.80 in 10.0 mi West 10.4 mph - N/A   Clear
11:55 PM 50.0 °F 40.8 °F 71% 29.80 in 10.0 mi West 6.9 mph - N/A   Clear